Location: Mouss�
(47.9236°N, 1.2701°W)
Time: 23:45:04
(UTC+00:00)

Cosmos 2084 Rocket - Pass Details

Date: 03 March 2021
Orbit: 527 x 653 km, 62.8° (Epoch: 14 April)

Event Time Altitude Azimuth Distance (km) Brightness Sun altitude
Rises 18:22:25 0° 320° (NW) 2,792 7.5 -5.8°
Reaches altitude 10° 18:24:39 10° 324° (NW) 1,911 6.6 -6.1°
Maximum altitude 18:28:56 61° 45° (NE) 687 3.6 -6.8°
Drops below altitude 10° 18:33:22 10° 126° (SE) 1,978 5.7 -7.6°
Enters shadow 18:35:01 - 129° (SE) 2,624 6.3 -7.9°
